Simultaneous Nadir Overpasses (SNOs) Predictions

Prediction of SNOs between NOAA-19 and METOP-C Satellite Orbit:

Table of predicted SNOs for the next 14.0 days since TLE Epoch: 5/3/2025
Index Date (NOAA-19) Time (NOAA-19) Lat,Lon (NOAA-19) SZA (NOAA-19 ) Date (METOP-C) Time (METOP-C) Lat,Lon (METOP-C) SZA (METOP-C ) Distance(km) Time Diff (sec)
1 05/06/2025 04:55:11 -80.33, 5.04 108.10 05/06/2025 04:56:23 -80.33, 5.04 108.05 0.18 72
2 05/06/2025 05:46:10 80.31, 172.60 71.94 05/06/2025 05:47:03 80.30, 172.73 72.00 2.62 53
3 05/06/2025 06:37:06 -80.29, -19.94 108.04 05/06/2025 06:37:43 -80.29, -19.77 107.99 3.21 37
4 05/06/2025 07:28:03 80.23, 148.26 72.10 05/06/2025 07:28:22 80.23, 148.23 72.11 0.61 19
5 05/06/2025 08:18:58 -80.19, -43.97 107.83 05/06/2025 08:19:01 -80.19, -43.97 107.83 0.12 3
6 05/06/2025 09:09:57 80.17, 123.58 72.21 05/06/2025 09:09:41 80.16, 123.72 72.22 2.79 16
7 05/06/2025 10:00:50 -80.08, -68.03 107.62 05/06/2025 10:00:19 -80.09, -68.19 107.67 3.16 31
8 05/06/2025 10:51:50 80.08, 99.21 72.38 05/06/2025 10:51:00 80.08, 99.19 72.34 0.43 50



Historial Predications of SNOs between NOAA-19 and METOP-C
